Back to catalog

KUIPER-00408

AliveCommunicationsLEO
NORAD 68924·PAYLOAD·🇺🇸 United States

Launched Apr 30, 2026 from Guiana Space Centre

Loading…

Next Passes (next 24 hours)

TLE

FreshSource: CelesTrak SupGP

Epoch: Sep 14, 2026, 22:06 UTC

1 68924C 26098F   26257.92093750  .00004935  00000+0  64604-3 0  2571
2 68924  51.9000  16.2826 0000505 100.2923 248.9172 14.79927790    17

Track KUIPER-00408 in real time with AllMySat

Download on the App Store